Rae Point,

8:16 AM MDT on August 16, 2017 (GMT -0600)
Rae Point

Weather History for CZRP - October, 2013

Change the Weather History Date:

Wednesday, October 23, 2013

  Actual Average Record
Temperature  
Mean Temperature 22 °F -  
Max Temperature 23 °F - - ()
Min Temperature 21 °F - - ()
Degree Days  
Heating Degree Days 43    
Moisture  
Dew Point 21 °F    
Average Humidity 96    
Maximum Humidity 97    
Minimum Humidity 92    
Precipitation  
Precipitation 0.00 in - - ()
Sea Level Pressure  
Sea Level Pressure 29.89 in    
Wind  
Wind Speed 10 mph ()    
Max Wind Speed 13 mph    
Max Gust Speed -    
T = Trace of Precipitation, MM = Missing Value Source: Averaged Metar Reports

Daily Weather History Graph

Daily Weather History Graph

Search for Another Location

Airport or City:

Trip Planner

Search our weather history database for the weather conditions in past years. The results will help you decide how hot, cold, wet, or windy it might be!

Date:

Astronomy

Oct. 23, 2013 Rise Set
Actual Time 9:54 AM MDT 3:38 PM MDT
Civil Twilight 8:12 AM MDT 5:19 PM MDT
Nautical Twilight 6:34 AM MDT 6:57 PM MDT
Astronomical Twilight 4:55 AM MDT 8:34 PM MDT
Moon No Moon Rise No Moon Set
Length of Visible Light 9h 07m
Length of Day
5h 43m
Waning Gibbous, 79% of the Moon is Illuminated
Oct 23
Waning Gibbous
Oct 26
Last Quarter
Nov 3
New
Nov 9
First Quarter
Nov 17
Full

Hourly Weather History & Observations

Time (MDT) Temp. Windchill Dew Point Humidity Pressure Visibility Wind Dir Wind Speed Gust Speed Precip Events Conditions
12:00 AM 22 °F - 21 °F 92% 29.94 in - SSE 12.7 mph - -  
12:00 AM 21.6 °F 9.3 °F 20.7 °F 96% 29.94 in - SSE 12.7 mph - N/A   Unknown
1:00 AM 22.1 °F 10.6 °F 21.4 °F 97% 29.94 in - SSE 11.5 mph - N/A   Unknown
2:00 AM 22.1 °F 11.3 °F 21.2 °F 96% 29.93 in - SSE 10.4 mph - N/A   Unknown
3:00 AM 22.3 °F 10.8 °F 21.6 °F 97% 29.93 in - SSE 11.5 mph - N/A   Unknown
4:00 AM 22.6 °F 10.7 °F 21.9 °F 97% 29.93 in - SSE 12.7 mph - N/A   Unknown
5:00 AM 22.6 °F 11.3 °F 21.9 °F 97% 29.92 in - SSE 11.5 mph - N/A   Unknown
6:00 AM 23 °F - 22 °F 95% 29.91 in - SSE 11.5 mph - -  
6:00 AM 22.8 °F 11.5 °F 22.1 °F 97% 29.91 in - SSE 11.5 mph - N/A   Unknown
7:00 AM 23.0 °F 13.1 °F 22.3 °F 97% 29.91 in - SE 9.2 mph - N/A   Unknown
8:00 AM 23.5 °F 13.7 °F 22.8 °F 97% 29.91 in - SE 9.2 mph - N/A   Unknown
9:00 AM 23.2 °F 13.3 °F 22.5 °F 97% 29.90 in - SE 9.2 mph - N/A   Unknown
10:00 AM 22.5 °F 11.7 °F 21.7 °F 97% 29.90 in - ESE 10.4 mph - N/A   Unknown
12:00 PM 22 °F - 21 °F 95% 29.88 in - ESE 11.5 mph - -  
12:00 PM 22.1 °F 10.6 °F 21.2 °F 96% 29.88 in - ESE 11.5 mph - N/A   Unknown
1:00 PM 21.7 °F 10.8 °F 20.8 °F 96% 29.88 in - ESE 10.4 mph - N/A   Unknown
2:00 PM 21.4 °F 10.4 °F 20.5 °F 96% 29.87 in - ESE 10.4 mph - N/A   Unknown
3:00 PM 21.4 °F 11.1 °F 20.5 °F 96% 29.86 in - ESE 9.2 mph - N/A   Unknown
4:00 PM 21.6 °F 12.1 °F 20.8 °F 97% 29.85 in - ESE 8.1 mph - N/A   Unknown
5:00 PM 21.6 °F 12.1 °F 20.7 °F 96% 29.84 in - East 8.1 mph - N/A   Unknown
6:00 PM 22 °F - 21 °F 92% 29.82 in - East 10.4 mph - -  
6:00 PM 21.6 °F 10.6 °F 20.7 °F 96% 29.82 in - East 10.4 mph - N/A   Unknown
11:00 PM 21.0 °F - 19.9 °F 96% - - North - - N/A   Unknown